JJA22 RKPC-RJFF

Flight info

Callsign JJA22
Flight time 0h 37m
Altitude 20000
Route TAMNA3W TAMNA Y677 SAMDO A595 IKE
Aircraft B738/M-SDE2E3FGHIRWXY/LB1

Departure

Time 2026-04-29 10:36
Airport Jeju International Airport (RKPC)

Arrival

Time 2026-04-29 11:13
Airport Fukuoka Airport (RJFF)
Time Latitude Longitude Altitude Speed Heading
2026-04-29 10:16 33.50596 126.48947 87 ft 0 kts 150°
2026-04-29 10:24 33.50603 126.48943 87 ft 4 kts 147°
2026-04-29 10:25 33.50623 126.48923 90 ft 4 kts 124°
2026-04-29 10:25 33.50634 126.48894 91 ft 4 kts 103°
2026-04-29 10:25 33.50637 126.48882 90 ft 1 kts 102°
2026-04-29 10:25 33.50637 126.48881 90 ft 0 kts 102°
2026-04-29 10:29 33.50637 126.48882 90 ft 0 kts 100°
2026-04-29 10:30 33.50654 126.48901 90 ft 9 kts 27°
2026-04-29 10:30 33.50720 126.48964 89 ft 14 kts 61°
2026-04-29 10:30 33.50770 126.49093 88 ft 20 kts 54°
2026-04-29 10:30 33.50849 126.49237 90 ft 21 kts 59°
2026-04-29 10:31 33.50920 126.49382 87 ft 15 kts 60°
2026-04-29 10:31 33.50971 126.49481 87 ft 13 kts 58°
2026-04-29 10:31 33.50974 126.49487 86 ft 0 kts 58°
2026-04-29 10:32 33.50975 126.49488 86 ft 1 kts 58°
2026-04-29 10:32 33.50998 126.49533 85 ft 13 kts 58°
2026-04-29 10:32 33.51086 126.49621 85 ft 18 kts 21°
2026-04-29 10:32 33.51201 126.49673 88 ft 17 kts 20°
2026-04-29 10:33 33.51292 126.49756 88 ft 17 kts 58°
2026-04-29 10:33 33.51356 126.49830 90 ft 10 kts 355°
2026-04-29 10:33 33.51386 126.49816 89 ft 0 kts 330°
2026-04-29 10:34 33.51387 126.49815 89 ft 1 kts 330°
2026-04-29 10:35 33.51425 126.49787 90 ft 11 kts 323°
2026-04-29 10:35 33.51457 126.49702 91 ft 12 kts 263°
2026-04-29 10:35 33.51404 126.49588 93 ft 36 kts 238°
2026-04-29 10:35 33.51144 126.49077 87 ft 107 kts 238°
2026-04-29 10:36 33.50650 126.48113 121 ft 159 kts 239°
2026-04-29 10:36 33.50064 126.46939 740 ft 162 kts 241°
2026-04-29 10:36 33.49479 126.45759 1388 ft 171 kts 239°
2026-04-29 10:36 33.48788 126.44449 1682 ft 201 kts 238°
2026-04-29 10:37 33.47999 126.42948 1906 ft 224 kts 239°
2026-04-29 10:37 33.47135 126.41289 2108 ft 245 kts 239°
2026-04-29 10:37 33.46200 126.39482 2438 ft 262 kts 239°
2026-04-29 10:37 33.45228 126.37599 3151 ft 268 kts 239°
2026-04-29 10:38 33.44239 126.35683 3927 ft 271 kts 239°
2026-04-29 10:38 33.43004 126.34035 4917 ft 265 kts 213°
2026-04-29 10:38 33.41298 126.33273 5771 ft 265 kts 187°
2026-04-29 10:38 33.39473 126.33531 6577 ft 270 kts 161°
2026-04-29 10:39 33.37891 126.34779 7250 ft 280 kts 134°
2026-04-29 10:39 33.36896 126.36816 7920 ft 291 kts 109°
2026-04-29 10:39 33.36609 126.39245 8623 ft 301 kts 90°
2026-04-29 10:39 33.36776 126.41764 9335 ft 309 kts 84°
2026-04-29 10:40 33.37062 126.44343 10040 ft 317 kts 83°
2026-04-29 10:40 33.37369 126.47023 10428 ft 336 kts 83°
2026-04-29 10:40 33.37679 126.49897 10601 ft 361 kts 84°
2026-04-29 10:40 33.37986 126.52959 10756 ft 383 kts 84°
2026-04-29 10:41 33.38295 126.56205 11167 ft 396 kts 85°
2026-04-29 10:41 33.38594 126.59508 11737 ft 402 kts 85°
2026-04-29 10:41 33.38892 126.62859 12358 ft 408 kts 85°
2026-04-29 10:41 33.39208 126.66259 12906 ft 416 kts 85°
2026-04-29 10:42 33.39516 126.69728 13522 ft 422 kts 86°
2026-04-29 10:42 33.39806 126.73200 14157 ft 427 kts 86°
2026-04-29 10:42 33.40167 126.76753 14726 ft 433 kts 83°
2026-04-29 10:42 33.40644 126.80381 15316 ft 439 kts 83°
2026-04-29 10:43 33.41123 126.83952 15909 ft 443 kts 83°
2026-04-29 10:43 33.41590 126.87618 16526 ft 447 kts 83°
2026-04-29 10:43 33.42045 126.91312 17104 ft 451 kts 84°
2026-04-29 10:43 33.42502 126.95056 17693 ft 456 kts 84°
2026-04-29 10:44 33.42960 126.98820 18250 ft 460 kts 84°
2026-04-29 10:44 33.43425 127.02640 18730 ft 465 kts 84°
2026-04-29 10:44 33.43892 127.06483 19217 ft 468 kts 84°
2026-04-29 10:44 33.44358 127.10318 19842 ft 463 kts 84°
2026-04-29 10:45 33.44820 127.14115 20110 ft 460 kts 84°
2026-04-29 10:45 33.45283 127.17957 20139 ft 472 kts 84°
2026-04-29 10:45 33.45756 127.21895 20153 ft 484 kts 84°
2026-04-29 10:45 33.46239 127.25920 20143 ft 494 kts 84°
2026-04-29 10:46 33.46732 127.30029 20150 ft 499 kts 84°
2026-04-29 10:46 33.47225 127.34143 20124 ft 496 kts 84°
2026-04-29 10:46 33.47711 127.38222 20127 ft 493 kts 84°
2026-04-29 10:46 33.48191 127.42283 20132 ft 492 kts 84°
2026-04-29 10:47 33.48668 127.46337 20149 ft 492 kts 84°
2026-04-29 10:47 33.49143 127.50386 20125 ft 492 kts 84°
2026-04-29 10:47 33.49619 127.54453 20133 ft 493 kts 84°
2026-04-29 10:47 33.50094 127.58522 20139 ft 494 kts 84°
2026-04-29 10:48 33.50568 127.62591 20132 ft 495 kts 84°
2026-04-29 10:48 33.51038 127.66637 20129 ft 495 kts 84°
2026-04-29 10:48 33.51512 127.70724 20130 ft 496 kts 84°
2026-04-29 10:48 33.51985 127.74819 20123 ft 496 kts 84°
2026-04-29 10:49 33.52456 127.78914 20124 ft 497 kts 84°
2026-04-29 10:49 33.52928 127.83015 20125 ft 497 kts 84°
2026-04-29 10:49 33.53398 127.87122 20137 ft 497 kts 84°
2026-04-29 10:49 33.53865 127.91219 20148 ft 496 kts 84°
2026-04-29 10:50 33.54332 127.95320 20131 ft 496 kts 84°
2026-04-29 10:50 33.54797 127.99417 20121 ft 496 kts 84°
2026-04-29 10:50 33.55261 128.03516 20122 ft 495 kts 84°
2026-04-29 10:50 33.55722 128.07604 20126 ft 495 kts 84°
2026-04-29 10:51 33.56182 128.11697 20130 ft 495 kts 84°
2026-04-29 10:51 33.56640 128.15779 20128 ft 494 kts 84°
2026-04-29 10:51 33.57096 128.19863 20113 ft 494 kts 84°
2026-04-29 10:51 33.57551 128.23945 20125 ft 494 kts 84°
2026-04-29 10:52 33.58005 128.28026 20132 ft 494 kts 84°
2026-04-29 10:52 33.58458 128.32113 20129 ft 494 kts 84°
2026-04-29 10:52 33.58924 128.36195 20143 ft 495 kts 83°
2026-04-29 10:52 33.59240 128.38903 20140 ft 495 kts 83°
2026-04-29 10:53 33.59888 128.44376 20128 ft 495 kts 83°
2026-04-29 10:53 33.60208 128.47081 20125 ft 495 kts 83°
2026-04-29 10:53 33.60689 128.51169 20135 ft 495 kts 83°
2026-04-29 10:53 33.61168 128.55260 20135 ft 494 kts 83°
2026-04-29 10:54 33.61643 128.59340 20128 ft 494 kts 84°
2026-04-29 10:54 33.62116 128.63430 20128 ft 494 kts 84°
2026-04-29 10:54 33.62586 128.67511 20114 ft 494 kts 83°
2026-04-29 10:54 33.63055 128.71602 20125 ft 494 kts 84°
2026-04-29 10:55 33.63522 128.75687 20136 ft 495 kts 84°
2026-04-29 10:55 33.63989 128.79776 20145 ft 495 kts 84°
2026-04-29 10:55 33.64456 128.83878 20136 ft 496 kts 84°
2026-04-29 10:55 33.64921 128.87975 20134 ft 496 kts 84°
2026-04-29 10:56 33.65385 128.92078 20124 ft 496 kts 84°
2026-04-29 10:56 33.65841 128.96119 20132 ft 496 kts 84°
2026-04-29 10:56 33.66302 129.00217 20146 ft 495 kts 84°
2026-04-29 10:56 33.66761 129.04316 20130 ft 496 kts 84°
2026-04-29 10:57 33.67220 129.08421 20138 ft 495 kts 84°
2026-04-29 10:57 33.67677 129.12520 20116 ft 495 kts 83°
2026-04-29 10:57 33.68131 129.16614 20121 ft 495 kts 84°
2026-04-29 10:57 33.68584 129.20697 20120 ft 487 kts 84°
2026-04-29 10:58 33.69027 129.24695 19659 ft 479 kts 84°
2026-04-29 10:58 33.69461 129.28640 19114 ft 474 kts 84°
2026-04-29 10:58 33.69892 129.32546 18531 ft 470 kts 84°
2026-04-29 10:58 33.70320 129.36429 17844 ft 467 kts 83°
2026-04-29 10:59 33.70744 129.40271 17216 ft 462 kts 83°
2026-04-29 10:59 33.71162 129.44074 16617 ft 456 kts 83°
2026-04-29 10:59 33.71574 129.47836 16026 ft 451 kts 83°
2026-04-29 10:59 33.71979 129.51549 15445 ft 447 kts 83°
2026-04-29 11:00 33.72380 129.55231 14858 ft 442 kts 83°
2026-04-29 11:00 33.72776 129.58879 14257 ft 439 kts 83°
2026-04-29 11:00 33.73163 129.62460 13639 ft 435 kts 83°
2026-04-29 11:00 33.73551 129.66058 12938 ft 432 kts 83°
2026-04-29 11:01 33.73934 129.69613 12346 ft 426 kts 83°
2026-04-29 11:01 33.74311 129.73124 11746 ft 421 kts 83°
2026-04-29 11:01 33.74684 129.76579 11197 ft 415 kts 82°
2026-04-29 11:01 33.75424 129.79872 10892 ft 401 kts 66°
2026-04-29 11:02 33.76535 129.82874 10703 ft 386 kts 64°
2026-04-29 11:02 33.77626 129.85765 10638 ft 372 kts 64°
2026-04-29 11:02 33.78690 129.88608 10644 ft 378 kts 65°
2026-04-29 11:02 33.79773 129.91537 10623 ft 387 kts 65°
2026-04-29 11:03 33.80859 129.94513 10379 ft 387 kts 65°
2026-04-29 11:03 33.81920 129.97468 10145 ft 382 kts 67°
2026-04-29 11:03 33.82747 130.00457 9879 ft 374 kts 75°
2026-04-29 11:03 33.83218 130.03458 9595 ft 357 kts 84°
2026-04-29 11:04 33.83333 130.06362 9312 ft 338 kts 93°
2026-04-29 11:04 33.83106 130.09106 9038 ft 322 kts 102°
2026-04-29 11:04 33.82561 130.11645 8774 ft 306 kts 112°
2026-04-29 11:04 33.81738 130.13905 8507 ft 292 kts 122°
2026-04-29 11:05 33.80639 130.15918 8263 ft 286 kts 132°
2026-04-29 11:05 33.79212 130.17517 8010 ft 277 kts 149°
2026-04-29 11:05 33.77610 130.18793 7671 ft 275 kts 151°
2026-04-29 11:05 33.76010 130.20005 7301 ft 270 kts 152°
2026-04-29 11:06 33.74427 130.21191 6932 ft 265 kts 152°
2026-04-29 11:06 33.72945 130.22484 6553 ft 263 kts 143°
2026-04-29 11:06 33.71550 130.23902 6052 ft 264 kts 142°
2026-04-29 11:06 33.70142 130.25337 5549 ft 264 kts 141°
2026-04-29 11:07 33.68730 130.26748 5052 ft 264 kts 143°
2026-04-29 11:07 33.67246 130.28030 4549 ft 263 kts 146°
2026-04-29 11:07 33.65729 130.29266 4041 ft 263 kts 146°
2026-04-29 11:07 33.64202 130.30468 3533 ft 262 kts 148°
2026-04-29 11:08 33.62613 130.31531 3075 ft 260 kts 152°
2026-04-29 11:08 33.61047 130.32499 2817 ft 248 kts 151°
2026-04-29 11:08 33.59581 130.33512 2562 ft 238 kts 147°
2026-04-29 11:08 33.58240 130.34596 2351 ft 227 kts 143°
2026-04-29 11:09 33.57008 130.35676 2165 ft 217 kts 142°
2026-04-29 11:09 33.55841 130.36707 1994 ft 199 kts 142°
2026-04-29 11:09 33.54780 130.37641 1796 ft 181 kts 142°
2026-04-29 11:09 33.53807 130.38494 1597 ft 165 kts 142°
2026-04-29 11:10 33.52917 130.39272 1541 ft 153 kts 143°
2026-04-29 11:10 33.52226 130.40194 1745 ft 151 kts 108°
2026-04-29 11:10 33.52126 130.41435 1600 ft 153 kts 89°
2026-04-29 11:10 33.52133 130.42695 1346 ft 147 kts 88°
2026-04-29 11:11 33.52202 130.43890 1225 ft 142 kts 81°
2026-04-29 11:11 33.52379 130.45074 1115 ft 145 kts 78°
2026-04-29 11:11 33.52861 130.46101 1092 ft 144 kts 44°
2026-04-29 11:11 33.53707 130.46803 774 ft 150 kts 26°
2026-04-29 11:12 33.54676 130.47144 528 ft 146 kts
2026-04-29 11:12 33.55646 130.46909 370 ft 139 kts 341°
2026-04-29 11:12 33.56516 130.46447 274 ft 135 kts 334°
2026-04-29 11:12 33.57349 130.45912 145 ft 143 kts 331°
2026-04-29 11:13 33.58176 130.45352 36 ft 117 kts 328°
2026-04-29 11:13 33.58695 130.45001 34 ft 60 kts 330°
2026-04-29 11:13 33.58867 130.44796 31 ft 31 kts 301°
2026-04-29 11:13 33.58929 130.44659 28 ft 17 kts 300°
2026-04-29 11:14 33.58945 130.44532 30 ft 16 kts 246°
2026-04-29 11:14 33.58878 130.44491 31 ft 9 kts 144°
2026-04-29 11:14 33.58826 130.44529 31 ft 9 kts 153°
2026-04-29 11:14 33.58772 130.44561 31 ft 8 kts 157°
2026-04-29 11:15 33.58731 130.44522 32 ft 9 kts 246°
2026-04-29 11:15 33.58701 130.44455 29 ft 4 kts 242°
2026-04-29 11:15 33.58690 130.44431 30 ft 1 kts 242°
2026-04-29 11:15 33.58686 130.44421 29 ft 0 kts 241°
2026-04-29 11:16 33.58686 130.44420 29 ft 0 kts 241°